Location: Bruck
(48.7364°N, 10.9425°E)
Time: 19:13:35
(UTC+00:00)

Daily predictions for brighter satellites

Satellite Brightness Start Highest point End
(mag) Time Altitude Azimuth Time Altitude Azimuth Time Altitude Azimuth
SL-08 ROCKET BODY 4.5 19:06:52 10° N 19:12:46 63° ENE 19:18:33 10° SSE
MOS 1-B Rocket 4.5 19:07:07 10° NNE 19:15:01 71° ESE 19:21:39 10° S
NOSS 2-2 (C) 4.5 19:10:23 10° NW 19:15:38 85° NE 19:23:02 10° SE
Cosmos 921 Rocket 3.9 19:12:00 10° NNW 19:16:10 49° WSW 19:20:14 10° S
Lacrosse 5 rocket 4.2 19:15:21 10° WSW 19:16:26 11° WSW 19:17:30 10° SW
Cosmos 2208 Rocket 4.4 19:12:14 10° NNW 19:17:38 71° WSW 19:23:03 10° SSE
USA 215 4.4 19:12:11 10° ENE 19:18:18 44° N 19:24:26 10° WNW
CREW DRAGON DEMO-1 DEB 3.3 19:16:01 10° W 19:18:38 51° NNW 19:21:15 10° ENE
ARIANE 5 R/B 4.2 19:20:38 10° ESE 19:23:53 21° ENE 19:27:08 10° NNE
Aureole 1 Rocket 4.4 19:20:08 10° SW 19:24:16 40° WNW 19:27:36 10° N
Cosmos 1242 Rocket 4.1 19:22:05 10° SE 19:24:36 18° E 19:27:06 10° NE
Cosmos 1805 Rocket 3.8 19:21:07 10° N 19:25:22 50° ENE 19:29:36 10° SSE
DELTA 2 R/B (1) 4.5 19:20:39 10° WSW 19:25:32 32° S 19:30:25 10° ESE
Cosmos 1745 Rocket 4.2 19:19:43 10° N 19:25:52 56° ENE 19:31:53 10° SSE
SJ-6B 3.7 19:22:17 10° S 19:26:01 49° W 19:29:52 10° NNW
USA 307 4.2 19:23:07 10° WNW 19:27:10 40° N 19:31:14 10° ENE
Cosmos 1633 Rocket 4.3 19:30:44 10° NNE 19:34:28 26° ENE 19:37:53 11° SE
Spot 2 Rocket 4.4 19:31:30 10° SE 19:35:58 33° ENE 19:40:26 10° N
Resurs 1-3 3.8 19:31:50 10° S 19:36:12 73° WSW 19:40:36 10° NNW
Cosmos 1743 Rocket 3.9 19:34:58 10° NNW 19:39:17 67° W 19:43:35 10° S
OBJECT-B 2.8 19:37:17 10° SSW 19:40:07 28° W 19:42:58 10° NW
USA 308 4.2 19:36:37 10° WNW 19:40:41 40° N 19:44:46 10° ENE
Cosmos 2278 Rocket 4.1 19:40:10 10° E 19:40:50 10° E 19:41:29 10° E
USA 186 4.4 19:42:53 10° WSW 19:44:04 12° W 19:45:14 10° WNW
FALCON 9 DEB 4.2 19:42:29 10° W 19:45:08 28° SW 19:47:23 13° SSE
S3M 4.1 19:40:20 10° S 19:46:38 66° E 19:52:55 10° NNE
SL-4 R/B 2.8 19:44:18 10° WNW 19:48:30 46° SSW 19:52:14 14° SE
Cosmos 2263 Rocket 4.0 19:44:48 10° WSW 19:49:54 36° NW 19:55:04 10° NNE
Cosmos 1606 3.0 19:47:17 10° SSW 19:51:01 69° W 19:54:49 10° N
Cosmos 1503 Rocket 4.5 19:46:22 10° S 19:51:07 38° ESE 19:55:55 10° NE
SOZ 4.2 19:48:24 10° WSW 19:51:28 70° SSE 19:53:40 10° ENE
Cosmos 1500 Rocket 4.5 19:47:20 10° NNW 19:51:36 49° W 19:55:49 10° SSW
CARTOSAT-1 4.5 19:50:28 14° SE 19:53:37 34° ENE 19:57:31 10° N
ERS-1 Rocket 4.0 19:51:03 13° ESE 19:54:47 32° ENE 19:59:13 10° N
Cosmos 1844 Rocket 2.6 19:49:25 10° SSW 19:54:56 70° ESE 20:00:31 10° NNE
FALCON 9 DEB 4.3 19:56:19 10° W 19:58:57 26° SW 20:00:44 15° S
Cosmos 2221 4.3 19:55:13 10° SW 19:59:07 34° WNW 20:03:06 10° N
Cosmos 1666 Rocket 3.8 19:54:57 10° N 19:59:19 53° ENE 20:02:37 16° SSE
IGS 5A 3.6 19:57:51 10° S 20:01:59 76° WSW 20:06:10 10° NNW
MetOp-B 4.1 19:57:54 11° SSE 20:03:05 85° ENE 20:08:29 10° NNW
USA 245 2.4 20:04:37 28° SE 20:05:29 44° ENE 20:07:40 10° N
Cosmos 1553 Rocket 4.4 19:59:51 10° SSW 20:05:56 67° WNW 20:12:09 10° N
Ariane Rocket 4.3 20:02:09 10° SSW 20:06:51 38° W 20:11:34 10° NNW
Intercosmos 24 3.6 20:03:56 10° S 20:07:50 90° ESE 20:11:24 10° N
SPOT 5 3.7 20:04:34 17° SE 20:08:04 40° ENE 20:12:55 10° N
Resurs 01 Rocket 2.3 20:06:45 10° S 20:11:07 55° W 20:15:31 10° NNW
SPOT 1/Viking Rocket 3.5 20:07:27 14° SSE 20:11:55 82° ENE 20:17:08 10° NNW
Cosmos 1844 3.7 20:06:12 10° SSW 20:11:56 77° ESE 20:17:37 10° NNE
CZ-4C R/B 3.4 20:05:13 10° NW 20:12:00 54° NE 20:18:50 14° ESE
Cosmos 1812 4.2 20:11:09 19° ESE 20:12:13 21° E 20:15:09 10° NE
Meteor 1-26 Rocket 4.3 20:10:14 10° S 20:15:51 59° E 20:21:19 10° NNE
USA 290 2.3 20:13:13 10° NNW 20:16:29 73° WSW 20:18:18 23° SSE
ATLAS 5 CENTAUR R/B 2.3 20:14:09 10° NW 20:19:40 90° NE 20:24:16 20° SE
Cosmos 1354 Rocket 4.0 20:16:33 10° S 20:21:41 60° ESE 20:26:51 10° NNE
Terra 2.7 20:19:12 20° ESE 20:21:55 37° ENE 20:26:18 10° N
USA 305 3.9 20:19:27 10° WNW 20:23:35 44° N 20:27:41 10° E
Sich 1 3.7 20:20:09 10° NNW 20:24:22 53° W 20:28:19 12° S
SJ 16-02 3.1 20:24:22 15° E 20:24:30 15° E 20:27:04 10° ENE
SPOT 3 Rocket 4.3 20:20:13 10° S 20:25:13 50° W 20:30:15 10° NNW
Cosmos 1933 3.5 20:21:30 10° SSW 20:25:32 72° W 20:29:35 10° N
Cosmos 1833 Rocket 3.3 20:21:14 10° NNW 20:26:40 45° NE 20:30:16 20° ESE
Akebono 4.2 20:28:08 10° NNW 20:30:46 51° ENE 20:31:00 48° E
Cosmos 1666 3.7 20:30:11 10° N 20:33:31 30° ENE 20:34:37 25° ESE
CZ-2C R/B 4.0 20:33:52 10° N 20:38:18 66° WNW 20:42:46 10° SSW
USA 306 3.7 20:38:34 10° WNW 20:42:43 48° NNE 20:46:05 15° E
X-37B 1.2 20:40:43 10° WSW 20:43:43 38° S 20:43:43 38° S
BREEZE-M DEB (TANK) 1.0 20:45:03 10° W 20:47:08 78° N 20:47:13 75° NE
NOSS 3-3 (A) 3.9 20:41:43 10° SSW 20:47:18 56° ESE 20:53:40 10° NE
NOSS 3-3 (C) 3.9 20:41:49 10° SSW 20:47:25 55° ESE 20:53:47 10° NE
Cosmos 1151 Rocket 3.2 20:46:11 16° SSW 20:49:40 73° WNW 20:54:04 10° N
H-2A R/B 3.9 20:45:54 10° NNE 20:49:55 42° E 20:50:59 35° SE
ATLAS 2AS CENTAUR R/B 3.9 20:43:22 10° NW 20:50:23 39° NNE 20:56:50 11° E
COSMOS 2406 3.3 20:46:12 10° NNW 20:51:52 66° ENE 20:54:50 29° SE
Gbstr 26 Del rocket 4.5 20:44:51 10° W 20:52:39 72° N 20:59:13 10° ENE
Cosmos 1782 3.1 20:50:08 17° SSW 20:53:06 64° WNW 20:57:05 10° N
CREW DRAGON DEMO-1 DEB 3.4 20:50:40 10° WNW 20:53:15 45° N 20:53:54 36° NE
Meteor 2-6 Rocket 4.3 20:50:49 28° SSE 20:53:32 54° E 20:58:52 10° NNE
Cosmos 1538 Rocket 4.2 20:50:50 10° NNW 20:56:11 62° ENE 20:58:41 31° SE
Cosmos 2082 Rocket 3.0 20:52:22 10° NNW 20:57:42 42° NE 21:00:42 23° ESE
Cosmos 1242 Rocket 4.1 20:55:54 10° SW 20:59:11 33° WNW 21:02:29 10° N
ARIANE 5 R/B 3.2 20:57:35 23° SSW 21:00:02 49° W 21:04:16 10° NNW
USA 215 4.0 20:54:24 10° E 21:00:39 50° NNE 21:06:54 10° WNW
Cosmos 1437 2.6 21:02:00 56° SW 21:02:24 67° WNW 21:05:15 10° N
Cosmos 1500 3.4 20:59:09 10° NNW 21:02:53 62° W 21:04:13 36° SSW
Cosmos 1515 Rocket 3.5 21:01:07 34° S 21:02:57 73° E 21:07:21 10° NNE
Cosmos 2154 Rocket 4.5 20:56:50 10° N 21:02:58 48° ENE 21:05:55 29° SE
Meteor 1-11 Rocket 4.2 20:59:10 10° N 21:05:01 53° ENE 21:07:42 31° SE
Cosmos 1869 Rocket 4.4 21:01:28 10° N 21:05:30 36° ENE 21:06:32 31° ESE
USA 307 3.4 21:03:27 10° WNW 21:07:41 56° NNE 21:10:04 24° E
Iridium 4 Rocket 3.7 21:05:32 29° S 21:08:32 77° E 21:14:26 10° N
Cosmos 2184 Rocket 4.0 21:05:01 10° N 21:11:18 76° E 21:14:20 32° SSE
Cosmos 1633 Rocket 4.4 21:08:19 10° NNW 21:12:19 35° W 21:14:59 18° SW
Cosmos 773 Rocket 4.4 21:07:33 10° NNW 21:12:45 57° WSW 21:15:14 30° S
Cosmos 2084 3.3 21:12:45 41° S 21:13:59 62° SE 21:18:12 10° NE
Cosmos 1271 Rocket 3.0 21:14:00 48° ESE 21:14:27 51° E 21:18:21 10° NNE
Cosmos 158 Rocket 4.1 21:12:02 10° NNW 21:16:51 55° ENE 21:18:31 37° ESE
Cosmos 1340 Rocket 4.1 21:16:08 10° N 21:19:39 27° ENE 21:20:18 26° E
Cosmos 2074 Rocket 4.0 21:14:06 10° N 21:20:27 89° E 21:23:33 33° S
Cosmos 1470 Rocket 4.3 21:16:16 10° NNW 21:20:37 49° W 21:22:34 29° SSW
USA 308 3.2 21:16:54 10° WNW 21:21:10 63° NNE 21:23:00 32° E
Cosmos 2278 Rocket 2.2 21:21:07 31° S 21:23:46 65° ESE 21:29:23 10° NNE
Cosmos 1536 3.1 21:23:47 10° N 21:27:45 50° ENE 21:28:14 47° ESE
deb Kosmos-1763 3.8 21:25:21 10° NNW 21:28:54 85° WSW 21:29:03 80° S
Nadezhda 1 Rocket 4.1 21:27:37 35° SSE 21:30:15 63° E 21:36:26 10° NNE
BREEZE-M R/B 4.2 21:27:51 10° W 21:28:29 16° W 21:28:29 16° W
Meteor 1-10 Rocket 4.1 21:28:44 34° S 21:31:15 84° E 21:36:55 10° NNE
ERS-1 Rocket 3.9 21:31:02 24° SSW 21:33:29 39° W 21:38:13 10° NNW
Cosmos 1933 Rocket 4.1 21:31:04 10° NNW 21:35:17 51° W 21:36:35 37° SW
Meteor 2-12 Rocket 4.4 21:33:45 10° N 21:39:51 89° W 21:42:16 39° S
Cosmos 1777 Rocket 4.3 21:36:27 20° SW 21:40:01 66° WNW 21:45:13 10° NNE
Cosmos 1610 Rocket 4.4 21:36:03 10° N 21:42:15 85° E 21:44:36 40° SSE
SPOT 5 4.3 21:43:47 21° SW 21:46:11 32° W 21:50:51 10° NNW
Cosmos 1544 3.4 21:43:39 10° N 21:47:00 55° ENE 21:47:00 55° ENE
Cosmos 1812 4.1 21:46:10 24° WSW 21:47:47 34° WNW 21:51:21 10° N
Cosmos 923 Rocket 4.0 21:44:07 10° NNW 21:49:24 76° ENE 21:50:49 49° SE
Cosmos 1943 Rocket 3.6 21:49:38 21° E 21:49:38 21° E 21:53:35 10° NE
Cosmos 2341 Rocket 4.3 21:45:56 10° N 21:52:16 58° ENE 21:54:31 39° SE
Cosmos 1898 Rocket 4.2 21:54:06 37° ESE 21:54:22 37° ESE 21:59:15 10° NE
Cosmos 2228 Rocket 3.1 21:55:41 54° SW 21:56:36 74° W 22:01:04 10° N
Cosmos 1733 Rocket 3.6 21:55:16 10° N 21:59:25 43° ENE 21:59:46 42° E
Terra 3.2 21:58:05 25° SW 21:59:43 31° W 22:03:57 10° NNW
CZ-4C R/B 3.3 21:53:46 10° NW 22:00:48 52° WSW 22:04:01 35° S
SJ 16-02 1.6 22:01:17 44° SW 22:02:32 65° WNW 22:06:58 10° NNE
USA 305 2.7 21:59:31 10° WNW 22:03:47 79° SSW 22:03:49 79° SSW
ATLAS 5 CENTAUR R/B 4.0 21:59:39 10° WNW 22:03:58 21° WSW 22:05:48 19° SW
Spot 4 3.8 22:06:45 59° SE 22:07:39 78° ENE 22:12:32 10° NNW
Cosmos 1666 4.5 22:06:00 10° NW 22:08:55 22° W 22:09:28 21° WSW
Cosmos 1833 Rocket 3.6 22:05:24 10° NW 22:10:29 35° WSW 22:11:58 30° SW
Cosmos 1743 2.7 22:07:22 10° N 22:11:01 77° NNE 22:11:01 77° NNE
Cosmos 2218 Rocket 4.3 22:06:58 10° N 22:13:07 55° ENE 22:15:08 39° SE
Cosmos 2297 4.0 22:17:33 45° SE 22:18:04 46° ESE 22:23:29 10° NE
Cosmos 990 Rocket 3.9 22:19:53 61° SSE 22:20:42 73° ESE 22:25:58 10° NNE
USA 306 3.2 22:18:35 10° WNW 22:22:09 53° WSW 22:22:09 53° WSW
SL-24 R/B - RUBIN 2 4.1 22:17:53 10° NW 22:23:31 70° NE 22:24:49 49° ESE
Meteor 1-27 Rocket 4.2 22:25:11 34° SW 22:27:35 58° WNW 22:33:25 10° N
NOSS 3-4 (A) 4.0 22:21:22 10° NW 22:28:13 60° WSW 22:30:35 43° S
Cosmos 2112 Rocket 4.0 22:22:53 10° NNW 22:28:16 80° WSW 22:29:12 61° S
NOSS 3-4 (C) 4.0 22:21:28 10° NW 22:28:20 60° SW 22:30:42 43° S
Cosmos 1862 Rocket 3.5 22:40:02 74° E 22:40:02 74° E 22:44:16 10° NNE
Gbstr 26 Del rocket 4.1 22:33:09 10° WNW 22:40:28 77° NNE 22:45:50 13° E
Cosmos 2082 Rocket 2.9 22:36:36 10° NW 22:41:45 38° WSW 22:42:32 36° SW
ATLAS 2AS CENTAUR R/B 2.7 22:34:36 10° NW 22:42:01 76° SW 22:44:14 47° SSE
SeaSat 1 3.3 22:37:35 10° NE 22:41:44 34° E 22:41:44 34° E
USA 215 3.2 22:40:07 33° SE 22:43:24 88° SW 22:49:59 10° NW
Cosmos 44 3.4 22:38:27 10° NW 22:43:57 89° ENE 22:44:53 62° SE
SL-8 Rocket 4.0 22:38:37 10° NNW 22:44:58 79° W 22:46:43 51° S
USA 307 4.1 22:43:33 10° WNW 22:46:10 32° W 22:46:10 32° W
Meteor 1-19 Rocket 4.0 22:47:55 63° SSE 22:48:47 79° E 22:54:12 10° NNE
Okean 1 3.5 22:52:12 67° NW 22:52:12 67° NW 22:55:57 10° N
Cosmos 1238 Rocket 4.0 22:46:48 10° NNW 22:53:12 66° W 22:54:36 50° SSW
ALOS 2 2.7 22:55:16 64° W 22:55:16 64° W 22:59:38 10° NNW
Cosmos 1340 Rocket 4.2 22:52:31 10° NNW 22:55:53 29° W 22:55:53 29° W
Cosmos 1680 Rocket 4.1 22:51:39 10° NW 22:56:38 41° WSW 22:57:07 40° WSW
Cosmos 1818 3.5 22:52:24 10° NW 22:57:55 84° NE 22:59:07 56° SE
Thor Agena Rocket 3.7 22:53:49 10° NNE 22:58:58 57° ESE 22:59:31 54° SE
DNEPR-1 R/B 4.1 23:00:00 59° SE 23:00:22 61° SE 23:05:19 10° NE
Cosmos 1937 Rocket 3.4 23:02:14 66° SW 23:02:59 84° WNW 23:08:11 10° NNE
Cosmos 2084 Rocket 3.4 23:01:48 10° NW 23:05:57 82° N 23:05:57 82° N
Cosmos 2278 Rocket 4.0 23:03:31 10° WSW 23:08:19 28° NW 23:13:09 10° NNE
RESURS DK-1 3.8 23:07:10 10° NNW 23:10:58 33° NE 23:12:06 28° E
Cosmos 1975 3.4 23:12:44 10° NNW 23:16:07 50° WNW 23:16:07 50° WNW
Okean 1-7 3.2 23:17:43 61° ENE 23:17:43 61° ENE 23:21:43 10° NNE
Cosmos 2242 Rocket 3.6 23:18:18 71° E 23:18:18 71° E 23:22:40 10° NNE
Cosmos 2369 Rocket 2.3 23:18:48 53° SE 23:19:25 56° ESE 23:24:56 10° NE
Okean 3 4.5 23:20:34 36° E 23:20:34 36° E 23:24:23 10° NNE
Helios 1A 4.4 23:22:39 27° E 23:23:34 30° ENE 23:27:13 10° N
Cosmos 1378 4.3 23:26:03 36° ENE 23:26:03 36° ENE 23:28:53 10° NNE
Cosmos 2181 Rocket 4.5 23:24:49 37° SW 23:26:49 50° WNW 23:32:48 10° N
ERBS 3.9 23:24:01 10° NW 23:26:01 31° NNW 23:26:01 31° NNW
Cosmos 1900 4.4 23:27:44 56° WSW 23:28:43 74° NW 23:33:47 10° NE
ATLAS CENTAUR R/B 3.7 23:30:19 12° E 23:30:19 12° E 23:30:54 10° ENE
USA 281 3.9 23:27:09 19° ESE 23:31:42 51° NE 23:38:01 10° NNW
Cosmos 1943 Rocket 2.3 23:31:07 48° SW 23:32:39 69° WNW 23:38:16 10° NNE
Meteor 2-4 Rocket 3.7 23:31:38 56° SSW 23:32:55 79° WNW 23:38:38 10° N
Cosmos 2263 4.4 23:35:39 51° SE 23:36:33 56° ESE 23:42:12 10° NE
Cosmos 2150 Rocket 4.3 23:38:19 49° SE 23:38:59 52° ESE 23:44:09 10° NNE
Okean 2 Rocket 4.2 23:35:17 10° N 23:39:21 35° ENE 23:40:15 32° E
SJ 16-02 4.2 23:40:49 10° WNW 23:42:03 11° NW 23:43:17 10° NNW
SL-16 R/B 4.0 23:38:18 11° ESE 23:43:31 32° ENE 23:48:58 10° N
Cosmos 1821 Rocket 4.0 23:37:40 10° NNW 23:44:05 77° W 23:45:52 50° S
EO 1 Del DPAF 3.5 23:41:29 10° NNE 23:44:43 64° NNE 23:44:43 64° NNE
Cosmos 1908 Rocket 4.4 23:43:47 10° NNW 23:47:51 40° W 23:47:51 40° W
Cosmos 1867 3.8 23:50:03 48° SE 23:50:34 50° ESE 23:55:51 10° NE
SL-27 R/B 3.4 23:48:29 10° NNW 23:50:59 44° N 23:50:59 44° N
Cosmos 1934 Rocket 4.0 23:45:57 10° N 23:52:09 73° E 23:54:14 43° SSE
BREEZE-M DEB (TANK) 4.0 23:42:32 10° WNW 23:52:56 50° SW 23:52:56 50° SW
